User: anonymous   Login
Location: Unspecified
(0.0000°N, 0.0000°E)
Time: 12:23:41
(UTC+02:00)
Language:

CZ-4B DEB - Orbit

View from above orbital plane
View from above orbital plane
View from above satellite
View from above satellite

Ground track
Ground track

The orbit data is extracted from the following two-line orbital elements,

1 33411U 08053D   17113.72590263 +.00079942 +00000-0 +10127-2 0  9999
2 33411 097.4133 160.0266 0006056 138.5800 221.5917 15.59194633467677
Epoch (UTC): 23 April 2017 17:25:17
Eccentricity: 0.0006056
inclination: 97.4133°
perigee height: 386 km
apogee height: 394 km
right ascension of ascending node: 160.0266°
argument of perigee: 138.5800°
revolutions per day: 15.59194633
mean anomaly at epoch: 221.5917°
orbit number at epoch: 46767

The dashed part of the orbit path shows where the satellite is in the earth's shadow,  

DLR